Printer-friendly version

IAU Minor Planet Center

Minor Planet Center

MPEC 2004-X41 : 2004 XM14

The following Minor Planet Electronic Circular may be linked-to from your own Web pages, but must not otherwise be redistributed electronically.


Read MPEC 2004-X40 Read MPEC 2004-X42


M.P.E.C. 2004-X41                                Issued 2004 Dec. 11, 13:01 UT

     The Minor Planet Electronic Circulars contain information on unusual
         minor planets and routine data on comets.  They are published
   on behalf of Commission 20 of the International Astronomical Union by the
          Minor Planet Center, Smithsonian Astrophysical Observatory,
                          Cambridge, MA 02138, U.S.A.

                  Supported in part by the Brinson Foundation
             Prepared using the Tamkin Foundation Computer Network

                              MPC@CFA.HARVARD.EDU
          URL http://cfa-www.harvard.edu/iau/mpc.html  ISSN 1523-6714

                                   2004 XM14

Observations:
     K04X14M* C2004 12 10.28882 04 32 52.02 -14 16 12.3          17.9 R EX041703
     K04X14M  C2004 12 10.29905 04 32 49.73 -14 15 47.2          17.8 R EX041703
     K04X14M  C2004 12 10.30929 04 32 47.22 -14 15 20.9          18.0 R EX041703
     K04X14M  C2004 12 10.31953 04 32 44.75 -14 14 54.9          17.5 R EX041703
     K04X14M  C2004 12 10.36689 04 32 33.63 -14 12 55.8          17.4 R EX041703
     K04X14M  C2004 12 10.36785 04 32 33.35 -14 12 52.7          18.5 R EX041703
     K04X14M  C2004 12 10.36883 04 32 33.15 -14 12 51.1          17.6 R EX041703
     K04X14M  C2004 12 10.36977 04 32 32.96 -14 12 48.1          17.5 R EX041703
     K04X14M  C2004 12 10.40003 04 32 25.78 -14 11 31.1          17.9 R EX041703
     K04X14M  C2004 12 10.40102 04 32 25.53 -14 11 28.3          17.8 R EX041703
     K04X14M  C2004 12 10.85284 04 30 42.51 -13 52 33.2                 EX041246
     K04X14M  C2004 12 10.85381 04 30 42.28 -13 52 31.3                 EX041246
     K04X14M  C2004 12 10.85450 04 30 42.14 -13 52 28.5                 EX041246
     K04X14M  C2004 12 10.85519 04 30 41.99 -13 52 27.4                 EX041246
     K04X14M  C2004 12 10.85590 04 30 41.83 -13 52 25.4                 EX041246
     K04X14M  C2004 12 10.85656 04 30 41.66 -13 52 24.2                 EX041246
     K04X14M 2C2004 12 11.12626 04 29 40.71 -13 41 02.2          17.7 R EX041H06
     K04X14M 2C2004 12 11.12988 04 29 39.86 -13 40 52.6          17.6 R EX041H06
     K04X14M 2C2004 12 11.13346 04 29 39.04 -13 40 43.7          18.1 R EX041H06
     K04X14M  C2004 12 11.13747 04 29 38.26 -13 40 34.6          19.8 R EX041734
     K04X14M  C2004 12 11.13962 04 29 37.69 -13 40 30.3          19.2 R EX041734
     K04X14M  C2004 12 11.14178 04 29 36.95 -13 40 24.1          18.0 R EX041734
     K04X14M  C2004 12 11.14394 04 29 36.59 -13 40 20.0          18.6 R EX041734
     K04X14M  C2004 12 11.29250 04 29 02.70 -13 34 04.5          19.0 R EX041854
     K04X14M  C2004 12 11.29815 04 29 01.11 -13 33 50.9          19.0 R EX041854
     K04X14M  C2004 12 11.30382 04 28 59.92 -13 33 37.7          19.0 R EX041854
     K04X14M  C2004 12 11.34993 04 28 49.35 -13 31 39.3          18.6 R EX041448
     K04X14M  C2004 12 11.35501 04 28 48.18 -13 31 26.2          18.5 R EX041448
     K04X14M  C2004 12 11.35937 04 28 47.20 -13 31 15.2          18.7 R EX041448

Observer details:
246 Klet Observatory-KLENOT.  Observers J. Ticha, M. Tichy, M. Kocer.
    Measurer M. Tichy.  1.06-m KLENOT Telescope + CCD.
448 Desert Moon Observatory.  Observer B. L. Stevens.  0.3-m
    Schmidt-Cassegrain + CCD.
703 Catalina Sky Survey.  Observer E. J. Christensen.  Measurers E. C. Beshore,
    C. M. Casey, E. J. Christensen, G. J. Garradd, R. E. Hill, S. M. Larson,
    R. H. McNaught.  0.68-m Schmidt + CCD.
734 Farpoint Observatory.  Observer G. Hug.  0.4-m f/6 Schmidt-Cassegrain
    + CCD.
854 Sabino Canyon Observatory, Tucson.  Observer J. E. McGaha.  0.36-m f/10.0
    Schmidt-Cassegrain + CCD.
H06 New Mexico Skies Observatory.  Observer R. Hutsebaut.  0.25-m reflector
    + CCD.

Orbital elements:
2004 XM14                                                            PHA 0.050
Epoch 2004 Dec. 1.0 TT = JDT 2453340.5                  MPC
M  78.84810              (2000.0)            P               Q
n   0.82851745     Peri.  184.59144     +0.08903675     +0.77836430
a   1.1227118      Node    91.51525     -0.89290105     +0.33885890
e   0.6947276      Incl.   38.43926     -0.44136172     -0.52851079
P   1.19           H   17.6           G   0.15
From 26 observations 2004 Dec. 10-11.

Ephemeris:
2004 XM14                a,e,i = 1.12, 0.69, 38                  q = 0.3427
Date    TT    R. A. (2000) Decl.     Delta      r     Elong.  Phase     V
2004 12 11    04 30.15   -13 46.2    0.626    1.527   141.8    23.5    18.6
2004 12 21    03 58.76   -07 01.0    0.721    1.594   138.0    24.4    19.0
2004 12 31    03 39.07   -01 09.5    0.844    1.653   129.4    27.4    19.5
2005 01 10    03 28.48   +03 40.7    0.989    1.706   119.8    30.0    20.0
2005 01 20    03 24.59   +07 39.6    1.146    1.752   110.4    31.8    20.5
2005 01 30    03 25.57   +10 59.4    1.311    1.792   101.6    32.6    20.8
2005 02 09    03 30.14   +13 50.1    1.478    1.825    93.4    32.7    21.1
2005 02 19    03 37.47   +16 19.0    1.644    1.852    85.6    32.2    21.4
2005 03 01    03 46.94   +18 30.8    1.805    1.873    78.2    31.2    21.6
2005 03 11    03 58.14   +20 28.8    1.958    1.889    71.2    29.9    21.7
2005 03 21    04 10.80   +22 15.4    2.101    1.899    64.5    28.3    21.9

Timothy B. Spahr             (C) Copyright 2004 MPC           M.P.E.C. 2004-X41

Read MPEC 2004-X40 Read MPEC 2004-X42


Our Web policy. Index to the CBAT/MPC/ICQ pages.


Valid HTML 4.01!